map of DSA home
DSA - Airport
Location
City:  Doncaster/Sheffield, Yorkshire, England, United Kingdom
Name:Robin Hood Airport
Old (Alt.):RAF Finningley
ICAO:EGCN
IATA:DSA

Details
Type:Airport (Aerodrome, Airfield)
Use:Public/Civil, International (customs port of entry)
Latitude:5328'29"N (53.474722)
Longitude:100'16"W (-1.004443)
Datum:WGS 1984
Elevation:55 ft (17 m)
Variation:0.63W (WMM2015v2 magnetic declination)
0.20 annual change
Runways:1
Longest:9491 × 197 ft (2893 × 60 m), paved

Time
Time Zone:UTC+0
Local Time:

Weather
METAR:EGCN 041350Z 27014KT 9999 SCT040 10/04 Q1015
TAF:EGCN 041103Z 0412/0512 20012KT 9999 SCT030
BECMG 0412/0415 27008KT
BECMG 0422/0501 6000
BECMG 0501/0504 3000 BR PROB40 0501/0512 0300 FZFG VV///

Related Locations
Nearby:
Farthest:NZBA: 11786 mi / 18968 km
Balclutha, OTA, NZ

Find:

   beyond  
but within

Other Information
Maps:
NOTAMs:
Links:
Sources:

  
  • flag of United Kingdom
  • flag of England
  

Sectional Chart

Flight Planning
at skyvector.com

Satellite Image

Google Maps Satellite view

 

Copyright © 2004-2019 Karl L. Swartz. All rights reserved.
The Great Circle Mapper name and logo are trademarks of the Great Circle Mapper.
All other trademarks mentioned herein belong to their respective owners.
Please see credits for attibutions and further copyright information.

  Follow gcmap on Facebook Follow gcmap on Twitter GCmap on LinkedIn

hCard Microformat

Geo Microformat